Simultaneous Nadir Overpasses (SNOs) Predictions

Prediction of SNOs between TERRA and METOP-C Satellite Orbit:

Table of predicted SNOs for the next 14.0 days since TLE Epoch: 4/24/2021
Index Date (TERRA) Time (TERRA) Lat,Lon (TERRA) SZA (TERRA ) Date (METOP-C) Time (METOP-C) Lat,Lon (METOP-C) SZA (METOP-C ) Distance(km) Time Diff (sec)
1 04/25/2021 14:22:39 -81.29,-169.61 109.32 04/25/2021 14:21:51 -81.29,-169.43 109.32 3.13 48
2 04/25/2021 15:12:05 81.30, -1.85 70.70 04/25/2021 15:12:32 81.30, -1.84 70.71 0.22 27
3 04/28/2021 09:56:52 -81.29,-103.17 110.19 04/28/2021 09:56:14 -81.29,-103.28 110.23 1.97 38
4 04/28/2021 10:46:18 81.29, 64.57 69.81 04/28/2021 10:46:54 81.30, 64.66 69.84 1.58 36
5 05/01/2021 05:31:04 -81.29, -36.77 111.05 05/01/2021 05:30:35 -81.29, -36.76 111.06 0.21 29
6 05/01/2021 06:20:30 81.29, 130.94 68.95 05/01/2021 06:21:16 81.29, 130.74 68.96 3.34 46
7 05/04/2021 01:05:17 -81.28, 29.59 111.88 05/04/2021 01:04:57 -81.29, 29.74 111.87 2.68 20
8 05/04/2021 01:54:42 81.31,-162.36 68.18 05/04/2021 01:55:37 81.30,-162.42 68.19 1.22 55
9 05/06/2021 20:39:29 -81.30, 96.27 112.63 05/06/2021 20:39:19 -81.29, 96.22 112.64 0.96 10



Historial Predications of SNOs between TERRA and METOP-C
